Monatsübersicht für Mai 2018

 
Wetter
Zeitraffer
Tageslänge (hh:mm)
Höchsttemperatur in °C
Uhrzeit
Tiefsttemperatur in °C
Uhrzeit
Luftfeuchte (max., in %)
Uhrzeit
Luftfeuchte (min., in %)
Uhrzeit
Luftdruck (max., in hPa)
Uhrzeit
Luftdruck (min., in hPa)
Uhrzeit
Luftdruck (Ø, in hPa)
Regenrate (max, mm/h)
Uhrzeit
Niederschlag in mm
Verdunstung in mm
Solar in W/m² (Ø)
Solar in W/m² (max.)
UV-Index (max.)
Sonnenscheindauer (hh:mm)
Windrichtung (Ø)
Windstärke (Ø in km/h)
Windstärke (Ø in bft)
Windböe (max., in km/h)
Uhrzeit
Windböe (max., in bft)
Uhrzeit
Taupunkt (max., in °C)
Uhrzeit
Taupunkt (min., in °C)
Uhrzeit
Windchill (min., in °C)
Uhrzeit
Gewitterindex (max.)
Uhrzeit
08
24.8
17:15 Uhr
10.7
05:20 Uhr

84
03:50 Uhr
32
14:25 Uhr
1018.4
00:00 Uhr

1011.2
20:25 Uhr
1015.2
0,000
00:00 Uhr
0,000
5.740
452
825
12:55 Uhr
5.5
12:55 Uhr

00:00:00
7,2
2
32,2
12:50 Uhr

5
11.1
09:20 Uhr
6.0
14:25 Uhr
10.7
05:20 Uhr
0
00:00 Uhr
09
26.9
16:45 Uhr
12.2
05:35 Uhr

81
05:45 Uhr
33
13:20 Uhr
1011.2
00:05 Uhr

1006.7
22:35 Uhr
1009.0
0,000
00:00 Uhr
0,000
5.740
436
855
14:55 Uhr
5.3
13:20 Uhr

00:00:00
7,1
2
35,4
15:30 Uhr

5
12.8
10:30 Uhr
7.0
00:20 Uhr
12.2
05:35 Uhr
0
00:00 Uhr
10
27.0
16:40 Uhr
15.7
02:55 Uhr

93
22:30 Uhr
36
16:45 Uhr
1012.5
23:50 Uhr

1005.7
06:20 Uhr
1007.2
7,200
19:50 Uhr
2,200
4.420
369
797
11:05 Uhr
5.3
13:05 Uhr

00:00:00
6,9
1
27,4
19:45 Uhr

4
15.9
20:35 Uhr
10.3
16:45 Uhr
15.1
04:25 Uhr
0
00:00 Uhr
11
16.3
17:30 Uhr
10.9
23:30 Uhr

97
06:50 Uhr
78
12:35 Uhr
1019.0
21:50 Uhr

1012.2
00:10 Uhr
1017.0
2,400
00:10 Uhr
0,400
0.914
103
454
12:25 Uhr
3.5
12:20 Uhr

00:00:00
4,6
1
22,5
00:50 Uhr

4
14.9
00:30 Uhr
9.9
23:30 Uhr
9.8
06:10 Uhr
0
00:00 Uhr
12
23.3
16:25 Uhr
7.8
03:40 Uhr

97
04:00 Uhr
52
16:25 Uhr
1018.6
00:00 Uhr

1014.2
19:00 Uhr
1016.7
0,000
00:00 Uhr
0,000
3.150
303
904
12:50 Uhr
5.7
12:45 Uhr

00:00:00
4,2
1
22,5
16:20 Uhr

4
14.0
19:20 Uhr
7.1
03:35 Uhr
7.8
03:40 Uhr
0
00:00 Uhr
13
25.7
16:15 Uhr
12.9
05:10 Uhr

95
05:00 Uhr
26
16:05 Uhr
1014.6
00:05 Uhr

1010.3
18:25 Uhr
1012.2
0,000
00:00 Uhr
0,000
6.401
458
846
13:15 Uhr
5.4
13:10 Uhr

00:00:00
10,2
2
37,0
15:05 Uhr

5
14.2
07:55 Uhr
4.2
16:40 Uhr
12.9
02:35 Uhr
0
00:00 Uhr
14
24.2
14:20 Uhr
13.4
05:50 Uhr

71
05:50 Uhr
25
14:20 Uhr
1014.8
23:00 Uhr

1011.4
00:20 Uhr
1012.9
0,000
00:00 Uhr
0,000
6.655
461
860
13:00 Uhr
5.2
12:50 Uhr

00:00:00
10,2
2
43,5
12:25 Uhr

6
10.9
10:10 Uhr
2.7
18:15 Uhr
13.3
06:35 Uhr
0
00:00 Uhr
15
24.2
12:05 Uhr
10.1
02:30 Uhr

97
21:45 Uhr
35
11:25 Uhr
1014.8
00:05 Uhr

1011.3
15:45 Uhr
1013.1
72,000
16:30 Uhr
21,000
3.658
295
990
12:15 Uhr
5.0
12:15 Uhr

00:00:00
5,5
1
40,2
16:35 Uhr

5
12.8
16:20 Uhr
5.4
01:15 Uhr
8.1
16:40 Uhr
0
00:00 Uhr


 
Wetter
Zeitraffer
Tageslänge (hh:mm)
Höchsttemperatur in °C
Uhrzeit
Tiefsttemperatur in °C
Uhrzeit
Luftfeuchte (max., in %)
Uhrzeit
Luftfeuchte (min., in %)
Uhrzeit
Luftdruck (max., in hPa)
Uhrzeit
Luftdruck (min., in hPa)
Uhrzeit
Luftdruck (Ø, in hPa)
Regenrate (max, mm/h)
Uhrzeit
Niederschlag in mm
Verdunstung in mm
Solar in W/m² (Ø)
Solar in W/m² (max.)
UV-Index (max.)
Sonnenscheindauer (hh:mm)
Windrichtung (Ø)
Windstärke (Ø in km/h)
Windstärke (Ø in bft)
Windböe (max., in km/h)
Uhrzeit
Windböe (max., in bft)
Uhrzeit
Taupunkt (max., in °C)
Uhrzeit
Taupunkt (min., in °C)
Uhrzeit
Windchill (min., in °C)
Uhrzeit
Gewitterindex (max.)
Uhrzeit
16
24.7
15:45 Uhr
11.6
01:10 Uhr

99
04:15 Uhr
39
14:05 Uhr
1011.6
00:15 Uhr

1009.7
19:20 Uhr
1010.6
0,000
00:00 Uhr
0,000
4.064
374
1055
13:15 Uhr
5.4
13:10 Uhr

00:00:00
5,0
1
27,4
16:30 Uhr

4
15.1
10:35 Uhr
9.0
14:05 Uhr
11.6
01:10 Uhr
0
00:00 Uhr
17
24.7
14:20 Uhr
10.8
05:15 Uhr

95
05:20 Uhr
42
14:10 Uhr
1014.2
23:15 Uhr

1009.2
04:00 Uhr
1011.2
0,000
00:00 Uhr
0,000
5.105
436
849
14:00 Uhr
5.2
12:50 Uhr

00:00:00
7,7
2
33,8
17:50 Uhr

5
12.9
11:20 Uhr
8.9
23:45 Uhr
10.3
23:50 Uhr
0
00:00 Uhr
18
15.8
14:20 Uhr
8.6
04:55 Uhr

91
04:50 Uhr
70
13:15 Uhr
1019.4
23:45 Uhr

1014.3
00:00 Uhr
1017.0
0,000
00:00 Uhr
0,000
1.626
156
333
13:10 Uhr
2.4
13:10 Uhr

00:00:00
6,6
1
27,4
01:15 Uhr

4
10.5
16:20 Uhr
7.1
04:40 Uhr
6.8
07:05 Uhr
0
00:00 Uhr
19
21.7
14:25 Uhr
9.9
05:40 Uhr

96
04:35 Uhr
30
11:55 Uhr
1022.8
23:35 Uhr

1019.3
00:00 Uhr
1020.7
0,000
00:00 Uhr
0,000
4.978
434
896
12:00 Uhr
4.9
11:55 Uhr

00:00:00
5,9
1
29,0
15:40 Uhr

4
10.6
00:20 Uhr
-0.1
10:35 Uhr
9.9
05:40 Uhr
0
00:00 Uhr
20
23.3
15:00 Uhr
6.9
04:55 Uhr

78
05:20 Uhr
27
15:00 Uhr
1025.0
11:00 Uhr

1022.9
19:45 Uhr
1023.8
0,000
00:00 Uhr
0,000
5.817
479
874
13:00 Uhr
5.4
12:55 Uhr

00:00:00
7,5
2
30,6
13:25 Uhr

5
6.2
08:15 Uhr
1.2
18:05 Uhr
5.2
05:45 Uhr
0
00:00 Uhr
21
23.2
16:00 Uhr
8.4
05:20 Uhr

80
05:10 Uhr
32
17:05 Uhr
1023.5
00:00 Uhr

1016.2
23:50 Uhr
1020.1
0,000
00:00 Uhr
0,000
6.147
471
911
13:30 Uhr
5.4
13:10 Uhr

00:00:00
8,6
2
37,0
13:50 Uhr

5
8.1
09:10 Uhr
3.9
00:00 Uhr
8.4
05:20 Uhr
0
00:00 Uhr
22
24.7
14:30 Uhr
10.1
05:35 Uhr

74
05:30 Uhr
28
14:30 Uhr
1016.3
00:00 Uhr

1013.7
15:55 Uhr
1014.7
0,000
00:00 Uhr
0,000
5.817
464
895
13:30 Uhr
5.7
12:40 Uhr

00:00:00
6,1
1
24,1
11:15 Uhr

4
8.3
08:00 Uhr
3.7
11:40 Uhr
10.1
05:35 Uhr
0
00:00 Uhr
23
16:14
26.5
15:35 Uhr
12.0
05:20 Uhr

79
05:50 Uhr
29
17:30 Uhr
1021.9
21:55 Uhr

1016.2
00:00 Uhr
1019.6
0,000
00:00 Uhr
0,000
5.664
446
941
13:35 Uhr
6.2
13:20 Uhr

00:00:00
8,3
2
30,6
14:15 Uhr

5
10.7
08:15 Uhr
5.1
17:55 Uhr
10.6
05:30 Uhr
0
00:00 Uhr
24
16:17
25.1
16:15 Uhr
12.3
05:05 Uhr

78
05:10 Uhr
34
15:25 Uhr
1023.2
08:00 Uhr

1019.8
18:40 Uhr
1021.7
0,000
00:00 Uhr
0,000
6.248
445
948
13:25 Uhr
6.2
13:20 Uhr

00:00:00
10,5
2
43,5
11:30 Uhr

6
11.2
10:15 Uhr
7.6
15:25 Uhr
12.2
06:10 Uhr
0
00:00 Uhr
25
16:19
28.1
16:10 Uhr
14.4
05:20 Uhr

68
04:55 Uhr
32
15:45 Uhr
1021.0
01:40 Uhr

1018.4
16:55 Uhr
1020.0
0,000
00:00 Uhr
0,000
5.690
421
1083
14:30 Uhr
6.4
13:00 Uhr

00:00:00
7,2
2
29,0
18:55 Uhr

4
11.8
11:00 Uhr
8.0
22:35 Uhr
13.9
06:45 Uhr
0
00:00 Uhr
26
16:22
27.8
13:00 Uhr
11.5
05:05 Uhr

85
05:10 Uhr
36
15:15 Uhr
1021.4
08:20 Uhr

1020.0
02:15 Uhr
1020.7
0,000
00:00 Uhr
0,000
4.369
365
985
14:35 Uhr
6.1
12:55 Uhr

00:00:00
4,3
1
32,2
15:40 Uhr

5
14.2
21:20 Uhr
8.5
03:00 Uhr
11.5
05:05 Uhr
0
00:00 Uhr
27
16:24
29.6
14:20 Uhr
12.9
05:30 Uhr

96
06:35 Uhr
36
14:20 Uhr
1023.5
21:25 Uhr

1018.5
15:00 Uhr
1021.1
2,400
15:30 Uhr
0,400
4.547
388
954
14:10 Uhr
5.9
13:00 Uhr

02:10:00
5,7
1
32,2
18:50 Uhr

5
16.9
15:55 Uhr
11.6
15:05 Uhr
12.9
05:30 Uhr
0
00:00 Uhr
28
16:26
31.1
17:00 Uhr
15.1
04:55 Uhr

89
02:45 Uhr
31
17:00 Uhr
1023.6
08:45 Uhr

1020.4
19:50 Uhr
1022.3
0,000
00:00 Uhr
0,000
6.223
444
868
14:05 Uhr
6.1
13:10 Uhr

13:00:00
8,6
2
29,0
17:30 Uhr

4
17.3
11:30 Uhr
11.0
17:55 Uhr
15.1
04:55 Uhr
0
00:00 Uhr
29
16:29
30.6
16:30 Uhr
19.3
05:45 Uhr

65
05:50 Uhr
24
18:10 Uhr
1022.1
00:05 Uhr

1015.7
18:20 Uhr
1018.8
0,000
00:00 Uhr
0,000
7.899
474
879
12:55 Uhr
6.4
12:40 Uhr

14:05:00
11,2
2
37,0
10:55 Uhr

5
13.5
00:00 Uhr
6.6
20:10 Uhr
18.0
05:10 Uhr
0
00:00 Uhr
30
16:31
32.2
14:10 Uhr
18.5
05:25 Uhr

67
23:50 Uhr
22
17:00 Uhr
1018.0
23:50 Uhr

1015.8
00:55 Uhr
1016.7
0,000
00:00 Uhr
0,000
6.629
445
915
13:10 Uhr
6.2
12:55 Uhr

12:35:00
7,3
2
32,2
17:45 Uhr

5
16.0
10:40 Uhr
7.5
17:05 Uhr
18.5
05:25 Uhr
0
00:00 Uhr
31
16:33
30.5
16:00 Uhr
17.1
05:00 Uhr

82
05:30 Uhr
35
14:15 Uhr
1018.2
00:10 Uhr

1015.9
18:25 Uhr
1017.2
0,000
00:00 Uhr
0,000
6.121
438
856
13:55 Uhr
6.0
12:35 Uhr

12:45:00
6,5
1
29,0
13:00 Uhr

4
16.7
08:50 Uhr
12.0
13:05 Uhr
17.1
05:00 Uhr
0
00:00 Uhr